| time (UTC) | temp F | wind direction | speed MPH | gust MPH | rain 1hr in | rain 24hr in | rain mn in | humidity % | barometer mb |
| 20260506201454 | 58 | 1 | 0.0 | 2.0 | 0.00 | 4.00 | 1.38 | 85 | 1011.2 |
| 20260506200558 | 59 | 1 | 0.0 | 2.0 | 0.00 | 4.00 | 1.38 | 85 | 1011.1 |
| 20260506195654 | 59 | 1 | 0.0 | 2.0 | 0.00 | 4.02 | 1.38 | 85 | 1010.9 |
| 20260506194754 | 59 | 2 | 0.0 | 2.0 | 0.00 | 4.02 | 1.38 | 85 | 1011.0 |
| 20260506193854 | 59 | 1 | 0.0 | 2.0 | 0.00 | 4.09 | 1.38 | 85 | 1010.8 |
| 20260506192954 | 60 | 0 | 0.0 | 0.0 | 0.00 | 4.09 | 1.38 | 84 | 1010.7 |
| 20260506192054 | 60 | 1 | 0.0 | 2.0 | 0.00 | 4.09 | 1.38 | 83 | 1010.5 |
| 20260506191154 | 61 | 1 | 0.0 | 2.0 | 0.00 | 4.18 | 1.38 | 83 | 1010.4 |
| 20260506190254 | 61 | 1 | 0.0 | 2.0 | 0.00 | 4.18 | 1.38 | 82 | 1010.2 |
| 20260506185354 | 62 | 0 | 0.0 | 0.0 | 0.00 | 4.18 | 1.38 | 81 | 1010.1 |
| 20260506183554 | 62 | 22 | 0.0 | 2.0 | 0.00 | 4.18 | 1.38 | 79 | 1010.2 |
| 20260506182654 | 62 | 23 | 0.0 | 2.0 | 0.00 | 4.18 | 1.38 | 78 | 1009.8 |
| 20260506181755 | 63 | 33 | 0.0 | 2.0 | 0.00 | 4.18 | 1.38 | 77 | 1009.7 |
| 20260506180854 | 63 | 0 | 0.0 | 0.0 | 0.00 | 4.18 | 1.38 | 77 | 1009.6 |
| 20260506174154 | 64 | 45 | 0.0 | 2.0 | 0.00 | 4.18 | 1.38 | 74 | 1009.5 |
| 20260506173254 | 64 | 24 | 0.0 | 2.0 | 0.00 | 4.18 | 1.38 | 74 | 1009.2 |
| 20260506172354 | 64 | 33 | 0.0 | 2.0 | 0.00 | 4.18 | 1.38 | 73 | 1009.5 |
| 20260506171454 | 64 | 30 | 1.0 | 4.0 | 0.00 | 4.18 | 1.38 | 73 | 1009.4 |
| 20260506170554 | 64 | 39 | 2.0 | 4.0 | 0.00 | 4.18 | 1.38 | 73 | 1009.5 |
| 20260506165654 | 64 | 33 | 1.0 | 4.0 | 0.00 | 4.18 | 1.38 | 73 | 1009.7 |
| 20260506164755 | 65 | 24 | 1.0 | 2.0 | 0.00 | 4.18 | 1.38 | 73 | 1009.5 |
| 20260506163854 | 65 | 29 | 0.0 | 4.0 | 0.00 | 4.18 | 1.38 | 73 | 1009.4 |
| 20260506162955 | 65 | 30 | 0.0 | 4.0 | 0.00 | 4.18 | 1.38 | 70 | 1009.5 |
| 20260506162055 | 65 | 37 | 2.0 | 4.0 | 0.00 | 4.18 | 1.38 | 68 | 1009.4 |
| 20260506161155 | 65 | 48 | 2.0 | 4.0 | 0.00 | 4.18 | 1.38 | 65 | 1009.6 |
| 20260506160255 | 66 | 45 | 2.0 | 7.0 | 0.00 | 4.18 | 1.38 | 66 | 1009.3 |
| 20260506155355 | 67 | 73 | 3.0 | 4.0 | 0.00 | 4.18 | 1.38 | 66 | 1009.4 |
| 20260506154455 | 67 | 43 | 2.0 | 4.0 | 0.00 | 4.18 | 1.38 | 67 | 1009.5 |
| 20260506153555 | 67 | 39 | 2.0 | 4.0 | 0.00 | 4.18 | 1.38 | 68 | 1009.6 |
| 20260506152655 | 67 | 39 | 1.0 | 6.0 | 0.00 | 4.18 | 1.38 | 67 | 1009.4 |
| 20260506151755 | 67 | 21 | 3.0 | 4.0 | 0.00 | 4.18 | 1.38 | 65 | 1009.5 |
| 20260506150855 | 67 | 28 | 1.0 | 4.0 | 0.00 | 4.18 | 1.38 | 67 | 1009.6 |
| 20260506145955 | 67 | 36 | 1.0 | 4.0 | 0.00 | 4.18 | 1.38 | 67 | 1009.5 |
| 20260506145055 | 66 | 24 | 2.0 | 6.0 | 0.00 | 4.18 | 1.38 | 68 | 1009.6 |
| 20260506144155 | 67 | 25 | 2.0 | 7.0 | 0.00 | 4.18 | 1.38 | 69 | 1009.5 |
| 20260506143255 | 67 | 37 | 3.0 | 7.0 | 0.00 | 4.18 | 1.38 | 69 | 1009.1 |
| 20260506142355 | 67 | 17 | 2.0 | 7.0 | 0.00 | 4.18 | 1.38 | 72 | 1009.1 |
| 20260506141455 | 66 | 52 | 2.0 | 6.0 | 0.00 | 4.18 | 1.38 | 72 | 1009.3 |
| 20260506135655 | 67 | 30 | 2.0 | 8.0 | 0.00 | 4.18 | 1.38 | 72 | 1009.1 |
| 20260506134755 | 68 | 49 | 3.0 | 7.0 | 0.00 | 4.18 | 1.38 | 72 | 1009.3 |
| 20260506133856 | 67 | 41 | 1.0 | 7.0 | 0.00 | 4.18 | 1.38 | 74 | 1009.5 |
| 20260506132055 | 66 | 49 | 4.0 | 6.0 | 0.00 | 4.18 | 1.38 | 74 | 1009.3 |
| 20260506131155 | 67 | 25 | 2.0 | 8.0 | 0.00 | 4.18 | 1.38 | 73 | 1009.5 |
| 20260506130255 | 67 | 81 | 3.0 | 8.0 | 0.00 | 4.18 | 1.38 | 72 | 1009.6 |
| 20260506125355 | 67 | 71 | 2.0 | 4.0 | 0.00 | 4.19 | 1.38 | 76 | 1009.8 |
| 20260506124455 | 67 | 43 | 2.0 | 6.0 | 0.00 | 4.19 | 1.38 | 76 | 1009.6 |
| 20260506123555 | 66 | 37 | 1.0 | 4.0 | 0.00 | 4.22 | 1.38 | 78 | 1009.6 |
| 20260506121755 | 66 | 4 | 1.0 | 7.0 | 0.01 | 4.22 | 1.38 | 77 | 1009.6 |
| 20260506120855 | 68 | 92 | 1.0 | 6.0 | 0.01 | 4.22 | 1.38 | 76 | 1009.4 |
| 20260506115955 | 69 | 149 | 0.0 | 6.0 | 0.01 | 4.25 | 1.38 | 77 | 1009.2 |
| 20260506114155 | 68 | 156 | 1.0 | 2.0 | 0.01 | 4.25 | 1.38 | 80 | 1008.9 |
| 20260506113255 | 67 | 164 | 0.0 | 4.0 | 0.01 | 4.77 | 1.38 | 83 | 1009.2 |
| 20260506110556 | 69 | 168 | 3.0 | 11.0 | 0.00 | 4.78 | 1.37 | 76 | 1009.3 |
| 20260506105656 | 70 | 168 | 3.0 | 7.0 | 0.00 | 4.83 | 1.37 | 76 | 1009.1 |
| 20260506102956 | 64 | 164 | 2.0 | 4.0 | 0.00 | 4.95 | 1.37 | 90 | 1009.1 |
| 20260506102055 | 63 | 158 | 2.0 | 4.0 | 0.00 | 4.95 | 1.37 | 92 | 1009.4 |
| 20260506101156 | 62 | 0 | 0.0 | 0.0 | 0.00 | 4.98 | 1.37 | 93 | 1009.5 |
| 20260506100256 | 62 | 158 | 0.0 | 2.0 | 0.00 | 4.98 | 1.37 | 93 | 1009.5 |
| 20260506094456 | 62 | 0 | 0.0 | 0.0 | 0.00 | 5.15 | 1.37 | 93 | 1009.6 |
| 20260506093555 | 61 | 158 | 0.0 | 2.0 | 0.00 | 5.34 | 1.37 | 93 | 1009.6 |
| 20260506092656 | 61 | 169 | 0.0 | 2.0 | 0.00 | 5.34 | 1.37 | 93 | 1009.5 |
| 20260506091755 | 61 | 162 | 0.0 | 2.0 | 0.00 | 5.36 | 1.37 | 93 | 1009.4 |
| 20260506090856 | 60 | 178 | 1.0 | 4.0 | 0.00 | 5.36 | 1.37 | 93 | 1009.4 |
| 20260506085956 | 60 | 164 | 1.0 | 4.0 | 0.00 | 5.39 | 1.37 | 94 | 1009.3 |
| 20260506085056 | 60 | 173 | 2.0 | 2.0 | 0.00 | 5.39 | 1.37 | 94 | 1009.5 |
| 20260506084156 | 59 | 181 | 1.0 | 2.0 | 0.00 | 5.39 | 1.37 | 94 | 1009.4 |
| 20260506083256 | 59 | 181 | 1.0 | 2.0 | 0.00 | 5.46 | 1.37 | 94 | 1009.5 |
| 20260506082356 | 59 | 181 | 1.0 | 2.0 | 0.00 | 5.46 | 1.37 | 94 | 1009.4 |
| 20260506081456 | 59 | 181 | 1.0 | 2.0 | 0.00 | 5.46 | 1.37 | 94 | 1009.3 |
| 20260506080556 | 59 | 171 | 1.0 | 2.0 | 0.00 | 5.46 | 1.37 | 94 | 1009.6 |
| 20260506072956 | 59 | 169 | 0.0 | 2.0 | 0.01 | 5.49 | 1.37 | 94 | 1009.4 |
| 20260506072056 | 59 | 68 | 0.0 | 2.0 | 0.01 | 5.49 | 1.37 | 94 | 1009.3 |
| 20260506071156 | 59 | 68 | 0.0 | 2.0 | 0.01 | 5.60 | 1.37 | 94 | 1009.2 |
| 20260506070256 | 59 | 28 | 0.0 | 2.0 | 0.04 | 5.60 | 1.37 | 94 | 1009.3 |
| 20260506061756 | 58 | 163 | 1.0 | 2.0 | 0.41 | 5.59 | 1.36 | 94 | 1009.0 |
| 20260506060856 | 58 | 115 | 0.0 | 2.0 | 0.63 | 5.59 | 1.36 | 94 | 1009.1 |
| 20260506050556 | 58 | 0 | 0.0 | 0.0 | 0.97 | 5.03 | 0.73 | 94 | 1009.3 |
| 20260506044756 | 58 | 0 | 0.0 | 0.0 | 1.50 | 4.62 | 0.26 | 94 | 1009.0 |
| 20260506042956 | 58 | 0 | 0.0 | 0.0 | 1.00 | 4.24 | 0.20 | 94 | 1008.7 |
| 20260506042056 | 58 | 0 | 0.0 | 0.0 | 1.00 | 4.24 | 0.20 | 94 | 1009.0 |
| 20260506040256 | 58 | 23 | 0.0 | 2.0 | 1.00 | 4.50 | 0.20 | 94 | 1009.0 |
| 20260506034456 | 58 | 0 | 0.0 | 0.0 | 0.00 | 3.57 | 0.20 | 93 | 1009.5 |
| 20260506033556 | 58 | 0 | 0.0 | 0.0 | 0.00 | 3.57 | 0.20 | 93 | 1009.5 |
| 20260506032657 | 58 | 0 | 0.0 | 0.0 | 0.00 | 3.57 | 0.20 | 93 | 1009.6 |
| 20260506031756 | 58 | 0 | 0.0 | 0.0 | 0.01 | 3.57 | 0.20 | 93 | 1009.7 |
| 20260506030857 | 58 | 0 | 0.0 | 0.0 | 0.01 | 3.57 | 0.20 | 93 | 1009.6 |
| 20260506025956 | 58 | 0 | 0.0 | 0.0 | 0.01 | 3.58 | 0.20 | 93 | 1010.0 |
| 20260506025057 | 58 | 0 | 0.0 | 0.0 | 0.04 | 3.58 | 0.20 | 93 | 1009.9 |
| 20260506024156 | 58 | 0 | 0.0 | 0.0 | 0.04 | 3.58 | 0.20 | 93 | 1010.0 |
| 20260506023256 | 58 | 0 | 0.0 | 0.0 | 0.04 | 3.61 | 0.20 | 93 | 1009.6 |
| 20260506022356 | 58 | 0 | 0.0 | 0.0 | 0.47 | 3.60 | 0.19 | 94 | 1009.3 |
| 20260506021457 | 58 | 163 | 0.0 | 2.0 | 0.47 | 3.61 | 0.19 | 93 | 1009.4 |
| 20260506020557 | 58 | 181 | 0.0 | 2.0 | 0.47 | 3.61 | 0.19 | 93 | 1009.3 |
| 20260506015657 | 58 | 0 | 0.0 | 0.0 | 0.47 | 3.64 | 0.19 | 93 | 1009.8 |
| 20260506013857 | 58 | 175 | 0.0 | 2.0 | 0.57 | 3.67 | 0.17 | 93 | 1009.7 |
| 20260506012957 | 58 | 158 | 0.0 | 2.0 | 0.57 | 3.67 | 0.17 | 93 | 1009.9 |
| 20260506012057 | 58 | 0 | 0.0 | 0.0 | 0.13 | 3.22 | 0.17 | 93 | 1010.0 |
| 20260506011157 | 58 | 0 | 0.0 | 0.0 | 0.64 | 3.27 | 0.17 | 93 | 1010.4 |
| 20260506010257 | 58 | 0 | 0.0 | 0.0 | 0.64 | 3.27 | 0.17 | 93 | 1010.3 |
| 20260506005357 | 58 | 0 | 0.0 | 0.0 | 0.63 | 3.28 | 0.15 | 93 | 1009.9 |
| 20260506004457 | 58 | 0 | 0.0 | 0.0 | 0.61 | 3.27 | 0.14 | 93 | 1010.3 |
| 20260506003557 | 58 | 0 | 0.0 | 0.0 | 0.52 | 3.24 | 0.05 | 93 | 1010.7 |
| 20260506002657 | 58 | 0 | 0.0 | 0.0 | 0.52 | 3.24 | 0.05 | 93 | 1011.0 |
| 20260506001757 | 58 | 0 | 0.0 | 0.0 | 0.51 | 3.24 | 0.04 | 93 | 1011.0 |
| 20260506000857 | 60 | 0 | 0.0 | 0.0 | 0.00 | 2.73 | 0.00 | 93 | 1010.8 |
| 20260505235957 | 60 | 0 | 0.0 | 0.0 | 0.00 | 2.73 | 0.00 | 93 | 1011.3 |
| 20260505235057 | 60 | 0 | 0.0 | 0.0 | 0.00 | 2.73 | 0.00 | 93 | 1011.0 |
| 20260505234157 | 60 | 0 | 0.0 | 0.0 | 0.00 | 2.73 | 0.00 | 93 | 1010.6 |
| 20260505233257 | 60 | 0 | 0.0 | 0.0 | 0.00 | 2.73 | 0.00 | 93 | 1010.4 |
| 20260505232357 | 60 | 0 | 0.0 | 0.0 | 0.00 | 2.73 | 0.00 | 93 | 1010.7 |
| 20260505231457 | 60 | 0 | 0.0 | 0.0 | 0.00 | 2.73 | 0.00 | 93 | 1011.1 |
| 20260505230557 | 60 | 0 | 0.0 | 0.0 | 0.00 | 2.73 | 0.00 | 93 | 1010.8 |
| 20260505225657 | 60 | 0 | 0.0 | 0.0 | 0.00 | 2.73 | 0.00 | 93 | 1011.0 |
| 20260505224757 | 60 | 0 | 0.0 | 0.0 | 0.00 | 2.73 | 0.00 | 93 | 1011.0 |
| 20260505223900 | 61 | 203 | 0.0 | 2.0 | 0.00 | 2.73 | 0.00 | 93 | 1011.0 |
| 20260505222957 | 61 | 187 | 1.0 | 4.0 | 0.00 | 2.73 | 0.00 | 93 | 1011.4 |
| 20260505222057 | 61 | 183 | 2.0 | 4.0 | 0.00 | 2.73 | 0.00 | 93 | 1011.4 |
| 20260505221158 | 61 | 166 | 0.0 | 2.0 | 0.00 | 2.73 | 0.00 | 93 | 1011.6 |
| 20260505215412 | 61 | 181 | 0.0 | 2.0 | 0.26 | 2.73 | 2.73 | 93 | 1011.4 |
| 20260505214458 | 61 | 181 | 0.0 | 2.0 | 0.26 | 2.73 | 2.73 | 93 | 1011.5 |
| 20260505213559 | 61 | 0 | 0.0 | 0.0 | 0.26 | 2.73 | 2.73 | 92 | 1011.6 |
| 20260505212657 | 61 | 181 | 0.0 | 2.0 | 0.26 | 2.73 | 2.73 | 92 | 1011.7 |
| 20260505211802 | 62 | 186 | 0.0 | 2.0 | 0.26 | 2.73 | 2.73 | 92 | 1011.4 |
| 20260505210857 | 62 | 158 | 0.0 | 2.0 | 0.17 | 2.62 | 2.62 | 92 | 1012.0 |
| 20260505205957 | 62 | 158 | 1.0 | 2.0 | 0.04 | 2.49 | 2.49 | 92 | 1012.0 |
| 20260505205105 | 62 | 0 | 0.0 | 0.0 | 0.01 | 2.47 | 2.47 | 92 | 1012.0 |
| 20260505203258 | 62 | 0 | 0.0 | 0.0 | 0.08 | 2.47 | 2.47 | 92 | 1012.0 |